Location: Moscow
(55.7500°N, 37.5830°E)
Time: 17:11:31
(UTC+03:00)

ISS - Pass Details

Date: 15 March 2026
Orbit: 416 x 425 km, 51.6° (Epoch: 19 April)

Event Time Altitude Azimuth Distance (km) Brightness Sun altitude
Rises 20:10:53 0° 235° (SW) 2,383 0.6 -14.4°
Reaches altitude 10° 20:13:09 10° 224° (SW) 1,517 -0.6 -14.7°
Maximum altitude 20:16:10 29° 162° (SSE) 805 -2.7 -15.1°
Enters shadow 20:16:38 28° 145° (SE) 830 -2.7 -15.1°
